This is the latest recevied weather packets stored in our database for station/object AC4AG. If no packets are shown the sender has not sent any weather packets the latest 10 day(s).
| Time | Temp. | Humidity | Pressure | Rain* | Wind** | Luminosity | Snow |
|---|---|---|---|---|---|---|---|
| 1777646720 | 13.33° C | 60% | 1014.7 hPa | 0 mm | - | 613 W/m² | - |
| 1777646415 | 13.33° C | 65% | 1014.5 hPa | 0 mm | - | 602 W/m² | - |
| 1777646112 | 12.78° C | 70% | 1014.6 hPa | 0 mm | - | 586 W/m² | - |
| 1777645809 | 12.78° C | 69% | 1014.5 hPa | 0 mm | - | 572 W/m² | - |
| 1777645507 | 12.78° C | 70% | 1014.7 hPa | 0 mm | - | 557 W/m² | - |
| 1777645202 | 12.78° C | 71% | 1014.4 hPa | 0 mm | - | 540 W/m² | - |
| 1777644898 | 12.22° C | 71% | 1014.3 hPa | 0 mm | - | 521 W/m² | - |
| 1777644596 | 12.22° C | 75% | 1014.3 hPa | 0 mm | - | 506 W/m² | - |
| 1777644297 | 11.67° C | 74% | 1014.4 hPa | 0 mm | - | 483 W/m² | - |
| 1777643993 | 11.11° C | 76% | 1014.4 hPa | 0 mm | - | 466 W/m² | - |
| 1777643690 | 11.67° C | 74% | 1014.5 hPa | 0 mm | - | 455 W/m² | - |
| 1777643388 | 11.67° C | 75% | 1014.6 hPa | 0 mm | - | 435 W/m² | - |
| 1777643084 | 11.11° C | 77% | 1014.6 hPa | 0 mm | - | 417 W/m² | - |
| 1777642781 | 10.56° C | 78% | 1014.6 hPa | 0 mm | - | 399 W/m² | - |
| 1777642478 | 10.56° C | 82% | 1014.9 hPa | 0 mm | - | 383 W/m² | - |
| 1777642174 | 10.56° C | 82% | 1014.7 hPa | 0 mm | - | 362 W/m² | - |
| 1777641872 | 10.56° C | 82% | 1014.7 hPa | 0 mm | - | 347 W/m² | - |
| 1777641571 | 10° C | 81% | 1014.7 hPa | 0 mm | - | 322 W/m² | - |
| 1777641266 | 10° C | 78% | 1014.7 hPa | 0 mm | - | 310 W/m² | - |
| 1777640963 | 10.56° C | 80% | 1014.7 hPa | 0 mm | - | 295 W/m² | - |
| 1777640660 | 10° C | 81% | 1014.8 hPa | 0 mm | - | 264 W/m² | - |
| 1777640356 | 9.44° C | 82% | 1014.6 hPa | 0 mm | - | 260 W/m² | - |
| 1777640053 | 8.89° C | 86% | 1014.8 hPa | 0 mm | - | 235 W/m² | - |
| 1777639749 | 8.89° C | 86% | 1014.8 hPa | 0 mm | - | 205 W/m² | - |
| 1777639448 | 8.89° C | 84% | 1014.7 hPa | 0 mm | - | 166 W/m² | - |
* Rain latest hour (hover to see other rain measurements)
** Current wind speed in m/s (hover to see current wind gust speed)